{"data":{"norad_id":67436,"epoch":"2026-09-20T06:35:22.881696Z","epoch_age_seconds":119619,"freshness":"FRESH","line1":"1 67436U 26007B   26263.27457039 -.00000110  00000+0  30547-4 0  9992","line2":"2 67436  50.0047 104.9499 0000397  23.5222 336.5668 13.29329051 33430","mean_motion":13.29329051,"eccentricity":3.97e-5,"inclination_deg":50.0047,"raan_deg":104.9499,"arg_perigee_deg":23.5222,"mean_anomaly_deg":336.5668,"bstar":3.0547e-5,"rev_number":3343,"period_min":108.32532388552,"perigee_km":1148.9962150916,"apogee_km":1149.5938931967,"semimajor_km":7527.4320541441,"source":"CELESTRAK","updated_at":"2026-09-21T09:00:16.632528Z"}}